www.pogodaiklimat.ru

Погода и климат >> Архив погоды >> Россия >> Ненецкий АО >> Имени Федорова


ПОГОДА в Имени Федорова

  • Прогноз погоды в Имени Федорова
  • Монитор погоды в Имени Федорова

АРХИВ ПОГОДЫ в Имени Федорова

Время (UTC), дата Ветер
(напр.,м/с)
 
Видим.   Явления Облачность Т
(С)
Тd
(С)
f
(%)
Тe
(С)
Тes
(С)
Комфортность P
(гПа)
Po
(гПа)
Тmin
(С)
Tmax
(С)
R
(мм)
R24
(мм)
S
(см)
21 19.03 ЮЗ 9-11
{11}
2000 м снег {метель} 10/0 300 м
[As op]
-0.4 -0.4 100 -9 -9 1003.3 1002.0
00 20.03 ЮЗ 9-11
{11}
4000 м слаб. снег {метель} 10/0 300 м
[As op]
-0.7 -0.7 100 -9 -9 1001.8 1000.5
03 20.03 ЮЗ 9-11
{11}
1000 м сильн. снег {метель} 10/0 300 м
[As op]
-1.3 -1.3 100 -10 -10 1001.6 1000.3 -2.3 2 17
06 20.03 З 9-11
{11}
2000 м снег {метель} ясно -1.1 -1.1 100 -10 -9 1001.3 1000.0
09 20.03 З 9-11
{13}
20 км {снег, метель} 10/10 300 м
[Sc]
-1.1 -1.1 100 -10 -10 1001.3 1000.0
12 20.03 З 5
{11}
4000 м дымка {снег} 10/10 200 м
[St]
-1.5 -1.5 100 -8 -8 1001.5 1000.2
15 20.03 СЗ 3 1000 м дымка 10/10 200 м
[St]
-3.6 -3.6 100 -9 -9 1001.5 1000.2 -0.8 1
18 20.03 СВ 2 500 м туман ?/? -4.6 -4.6 100 -9 -9 1000.8 999.4
21 20.03 СВ 1 10 км {снег, туман} 10/0
[As trans]
-5.3 -5.3 100 -8 -8 999.9 998.5
00 21.03 СВ 2 4000 м слаб. снег {туман} 10/0
[As trans]
-5.4 -5.4 100 -10 -10 999.4 998.0
03 21.03 СВ 2 1000 м сильн. снег 10/0 300 м
[As op]
-4.8 -4.8 100 -9 -9 999.4 998.0 -5.4 2 20
06 21.03 СВ 2 10 км {снег} 10/0
[Ac und]
-4.1 -4.1 100 -9 -8 999.8 998.4
09 21.03 СВ 3 4000 м слаб. снег 10/0 300 м
[As op]
-3.6 -3.6 100 -9 -9 1001.0 999.7
12 21.03 В 3 4000 м дымка {снег} 10/10 200 м
[St]
-3.0 -3.0 100 -8 -8 1002.0 1000.7
15 21.03 ЮВ 1 500 м туман ?/? -2.5 -2.5 100 -5 -5 1003.0 1001.6 -2.3 0.9
18 21.03 ЮЗ 1 500 м переохл. туман ?/? -6.1 -6.1 100 -9 -9 1003.9 1002.6
21 21.03 ЮЗ 2 500 м переохл. туман ?/? -6.8 -6.9 99 -11 -11 1004.3 1002.9
00 22.03 З 1 500 м переохл. туман ?/? -6.5 -6.6 99 -9 -9 1005.2 1003.9
03 22.03 С 1 4000 м слаб. снег {туман} 10/0 300 м
[As op]
-6.8 -6.9 99 -9 -9 1006.1 1004.7 -7.4 0.2 20
06 22.03 З 1 2000 м снежные зёрна {туман} 10/10 300 м
[St]
-5.4 -5.4 100 -8 -8 1007.0 1005.7
09 22.03 штиль 0 10 км в посл. час снег 10/10 300 м
[Sc]
-3.9 -3.9 100 -5 -5 1008.1 1006.7
12 22.03 штиль 0 10 км {снег} 10/10 600 м
[Sc]
-3.9 -3.9 100 -5 -5 1009.0 1007.6
15 22.03 З 1 10 км 10/10 600 м
[Sc]
-5.9 -5.9 100 -8 -8 1009.2 1007.8 -3.4 0.2
18 22.03 ЮЗ 2 10 км 10/10 600 м
[Sc]
-5.7 -5.7 100 -10 -10 1008.9 1007.5
21 22.03 ЮЗ 2 10 км 9/9 600 м
[Sc]
-5.8 -5.8 100 -10 -10 1008.6 1007.3
00 23.03 З 4 10 км 10/10 600 м
[Sc]
-5.1 -5.1 100 -12 -12 1007.9 1006.5
03 23.03 З 6 10 км позёмок 10/10 600 м
[Sc]
-5.3 -5.3 100 -13 -13 1007.8 1006.4 -7.3 20
06 23.03 З 9-11
{11}
10 км позёмок 10/10 300 м
[Sc]
-6.0 -6.0 100 -16 -16 1006.8 1005.4 -7.4
09 23.03 З 11-13
{14}
4000 м метель 10/10 300 м
[Sc]
-3.8 -3.8 100 -14 -14 1005.8 1004.4
12 23.03 ЮЗ 12-14
{17}
4000 м метель 8/5 300 м
[Sc Ac trans]
-3.9 -3.9 100 -14 -14 1004.7 1003.3
15 23.03 З 11-13
{14}
4000 м метель 10/10 300 м
[Sc]
-4.4 -4.4 100 -15 -15 1004.3 1002.9 -3.7
18 23.03 ЮЗ 13-16
{16}
4000 м метель 10/10 300 м
[Sc]
-3.8 -3.8 100 -14 -14 1002.6 1001.3
21 23.03 ЮЗ 13-16
{16}
4000 м метель 10/10 300 м
[Sc]
-3.6 -3.7 99 -14 -14 999.1 997.7
00 24.03 ЮЗ 16-19
{19}
1000 м сильная метель 10/10 300 м
[Sc]
-2.8 -2.9 99 -14 -14 994.9 993.6
03 24.03 ЮЗ 15-18
{20}
500 м сильная метель 10/10 300 м
[Sc]
-2.8 -2.8 100 -14 -14 991.7 990.3 -5.1 17
06 24.03 ЮЗ 16-20
{20}
500 м сильная метель 10/0
[As trans]
-1.9 -1.9 100 -13 -13 989.4 988.0
09 24.03 ЮЗ 17-20
{21}
500 м сильная метель 10/10 300 м
[Sc]
-1.2 -1.2 100 -12 -12 989.2 987.9
12 24.03 З 17-20
{22}
1000 м сильная метель 10/10 300 м
[Sc]
-0.6 -0.6 100 -11 -11 989.8 988.5
15 24.03 З 14-17
{21}
4000 м метель 10/10 300 м
[Sc]
-0.7 -0.7 100 -11 -11 991.8 990.5 -0.5
18 24.03 З 12-17
{20}
4000 м метель 10/10 300 м
[Sc]
-1.3 -1.7 97 -11 -11 993.7 992.4
21 24.03 З 13-15
{16}
4000 м метель 10/10 300 м
[Sc]
-1.2 -1.2 100 -11 -11 995.1 993.8
00 25.03 З 10-12
{15}
10 км сильный позёмок 8/8 600 м
[Sc]
-1.8 -1.9 99 -11 -11 996.0 994.6
03 25.03 ЮЗ 9-11
{12}
10 км позёмок 10/10 600 м
[Sc]
-1.2 -1.5 98 -10 -10 997.0 995.7 -1.8 17
06 25.03 ЮЗ 9-10
{11}
10 км {метель} 10/10 600 м
[Sc]
-0.7 -1.5 94 -9 -9 997.8 996.5
09 25.03 ЮЗ 9-10
{11}
10 км 10/10 300 м
[Sc]
-0.6 -0.8 99 -9 -9 998.2 996.9
12 25.03 ЮЗ 9-10
{11}
10 км 10/10 300 м
[Sc]
-0.9 -0.9 100 -9 -9 998.4 997.1
15 25.03 ЮЗ 9-10
{11}
10 км 10/10 300 м
[Sc]
-0.6 -0.6 100 -9 -9 999.3 997.9 -0.1
18 25.03 ЮЗ 10-12
{12}
10 км 10/10 300 м
[Sc]
-1.0 -1.0 100 -10 -10 999.8 998.5
21 25.03 ЮЗ 9-11
{12}
10 км 10/10 300 м
[Sc]
-1.2 -1.2 100 -10 -10 1000.3 999.0
00 26.03 ЮЗ 7
{11}
10 км 10/10 600 м
[Sc]
-3.1 -3.1 100 -11 -11 1000.4 999.0
03 26.03 В 3 10 км 8/3 300 м
[Sc Ac und]
-3.1 -3.1 100 -9 -9 1000.4 998.6 -4.8 17
06 26.03 ЮВ 4 10 км 10/0
[As trans]
-2.8 -2.8 100 -9 -8 998.4 997.1
09 26.03 В 5 10 км 10/10 300 м
[Sc]
-1.9 -2.0 99 -9 -9 996.0 994.6
12 26.03 СВ 6 2000 м снег {метель} 10/0 300 м
[As op]
-1.9 -1.9 100 -9 -9 994.1 992.8
15 26.03 СВ 8-10
{10}
2000 м снег {метель} 10/0 300 м
[As op]
-2.4 -2.4 100 -11 -11 991.9 990.5 -1.7 1
18 26.03 СВ 8-10
{11}
4000 м слаб. снег {метель} 10/0 300 м
[As op]
-2.7 -2.8 99 -11 -11 990.1 988.8

 

Местоположение метеостанции Имени Федорова (Ненецкий АО, Россия): широта 70.45 долгота 59.08 высота над уровнем моря 12 м.

В архиве по умолчанию представлена погода в Имени Федорова за последнюю неделю. Архивные данные за месяц целиком и за предыдущие месяцы, начиная с января 2011 года, Вы можете получить, выбрав интересующий диапазон дат из раскрывающегося списка и нажав кнопку "Ввод!".


*Определитесь, кто Вы:
робот инопланетянин человек

Внимание! Время в таблицах - всемирное. Для получения местного времени необходимо прибавить поправку, которая равна 3 ч.

Смотрите также архив погоды в соседних городах и на ближайших метеорологических станциях:

Погода на Мысе Белый Нос (Ненецкий АО, Россия) (104 км)
Погода в Амдерме (Ненецкий АО, Россия) (124 км)
Погода в Варандее (Ненецкий АО, Россия) (186 км)
Погода на Мысе Константиновском (Ненецкий АО, Россия) (253 км)
Погода в Усть-Каре (Ненецкий АО, Россия) (261 км)
Погода в Ходоварихе (Ненецкий АО, Россия) (266 км)
Погода в Марресале (Ямало-Ненецкий АО, Россия) (304 км)
Погода в Малых Кармакулах (Архангельская область, Россия) (310 км)
Погода в Хорей-Вере (Ненецкий АО, Россия) (339 км)
Погода в Сенгейском Шаре (Ненецкий АО, Россия) (376 км)

Пояснения к столбцам:

Ветер - указаны скорость ветра в м/с - средняя за 10 мин, порывы в срок и между сроками (в фигурных скобках) и направление, откуда дует ветер: С - северный, СВ - северо-восточный, В - восточный, ЮВ - юго-восточный, Ю - южный, ЮЗ - юго-западный, З - западный, СЗ - северо-западный.
Видимость - горизонтальная дальность видимости в метрах или километрах. При видимости от 1 до 10 км при отсутствии осадков обычно наблюдается дымка, при ухудшении видимости до 1 км и менее - туман. В сухую погоду видимость может ухудшаться дымом, пылью или мглою.
Явления - указаны атмосферные явления, наблюдавшиеся в срок или в последний час перед сроком; фигурными скобками обозначены явления, наблюдавшиеся между сроками (за 1-3 часа до срока); квадратными скобками обозначены град или гололедные отложения с указанием их диаметра в мм.
Облачность - указаны через наклонную черту общая и нижняя облачность в баллах и высота нижней границы облаков в метрах; квадратными скобками обозначены формы облаков: Ci - перистые, Cs - перисто-слоистые, Cc - перисто-кучевые, Ac - высококучевые, As - высокослоистые, Sc - слоисто-кучевые, Ns - слоисто-дождевые, Cu - кучевые, Cb - кучево-дождевые. Подробнее классификацию облаков см. в Атласе облаков (PDF).
T - Температура воздуха - температура, измеренная на высоте 2 м над землей.
Td - Температура точки росы - температура, при понижении до которой содержащийся в воздухе водяной пар достигнет насыщения.
f - Относительная влажность воздуха - влажноcть воздуха, измеренная на высоте 2 м над землей.
Te - Эффективная температура - температура, которую ощущает одетый по сезону человек в тени. Характеристика душности погоды. При расчете учитывается влияние влажности воздуха и скорости ветра на теплоощущения человека.
Tes - Эффективная температура на солнце - температура, которую ощущает человек, с поправкой на солнечный нагрев. Характеристика знойности погоды. Зависит от высоты солнца над горизонтом, облачности и скорости ветра. Ночью, в пасмурную погоду, а также при ветре 12 м/с и более поправка равна нулю.
P - Атмосферное давление - приведенное к уровню моря атмосферное давление.
Po - Атмосферное давление - измеренное на уровне метеостанции атмосферное давление.
Tmin - Минимальная температура - минимум температуры воздуха на высоте 2 м над землей.
Tmax - Максимальная температура - максимум температуры воздуха на высоте 2 м над землей.
R - Количество осадков - Количество выпавших осадков за период времени, мм. При наведении курсора мыши на число - период времени, за который выпало указанное количество осадков.
R24 - Количество осадков - Количество выпавших осадков за 24 часа, мм.
S - Снежный покров - Высота снежного покрова, см. При наведении курсора мыши на число - состояние снежного покрова и степень покрытия местности в баллах.